Weather reports worldwide

Advertisment
Herstmonceux, United Kingdom (3882): temperature & dewpoint: 19.05.2019 23:00:00 - 25.05.2019 23:00:00 (BST)Herstmonceux, United Kingdom (3882): temperature -20cm & temperature -100cm: 19.05.2019 23:00:00 - 25.05.2019 23:00:00 (BST)Herstmonceux, United Kingdom (3882): wind speed: 19.05.2019 23:00:00 - 25.05.2019 23:00:00 (BST)Herstmonceux, United Kingdom (3882): wind direction: 19.05.2019 23:00:00 - 25.05.2019 23:00:00 (BST)Herstmonceux, United Kingdom (3882): reduced air pressure: 19.05.2019 23:00:00 - 25.05.2019 23:00:00 (BST)Herstmonceux, United Kingdom (3882): visibility: 19.05.2019 23:00:00 - 25.05.2019 23:00:00 (BST)Herstmonceux, United Kingdom (3882): sunshine duration: 19.05.2019 23:00:00 - 25.05.2019 23:00:00 (BST)Herstmonceux, United Kingdom (3882): precipitation: 19.05.2019 23:00:00 - 25.05.2019 23:00:00 (BST)
Date & Time tt [°C] td [°C] tt -20cm [°C] tt -100cm [°C] ff [km/h] ff [kn] dd ppp [hPa] vv [km] sd [min] rr [mm]
25.05.2019 23:00:00 14,4 12,2 - - 8 4 WSW 1017,9 14 0 0,0
25.05.2019 22:00:00 14,6 11,8 - - 8 4 W 1017,9 19 0 0,0
25.05.2019 21:00:00 15,0 11,7 - - 9 5 W 1017,7 20 0 0,0
25.05.2019 20:00:00 15,9 11,4 - - 9 5 W 1017,6 30 0 0,0
25.05.2019 19:00:00 16,2 10,2 - - 11 6 W 1017,8 40 36 0,0
25.05.2019 18:00:00 17,8 11,0 - - 16 9 WSW 1017,7 50 30 0,0
25.05.2019 17:00:00 17,7 11,1 - - 15 8 W 1017,9 35 30 0,0
25.05.2019 16:00:00 17,8 11,7 - - 11 6 WSW 1018,5 29 6 0,0
25.05.2019 15:00:00 17,7 10,3 - - 15 8 W 1018,5 40 18 0,0
25.05.2019 14:00:00 17,6 10,7 - - 11 6 WSW 1018,8 45 6 0,0
25.05.2019 13:00:00 19,3 12,4 - - 15 8 WSW 1019,0 40 18 0,0
25.05.2019 12:00:00 18,5 10,6 - - 8 4 W 1019,2 29 6 0,0
25.05.2019 11:00:00 18,1 11,0 - - 5 3 NW 1019,3 40 42 0,0
25.05.2019 10:00:00 17,2 10,8 15,7 13,5 8 4 N 1019,6 29 12 0,0
25.05.2019 09:00:00 16,2 11,1 - - 9 5 N 1019,4 40 0 0,0
25.05.2019 08:00:00 14,8 10,7 - - 5 3 N 1018,9 45 0 0,0
25.05.2019 07:00:00 14,1 10,4 - - 4 2 NNW 1018,6 50 0 0,0
25.05.2019 06:00:00 14,1 9,9 - - 8 4 NNW 1018,3 50 0 0,0
25.05.2019 05:00:00 13,7 10,3 - - 4 2 NW 1018,2 45 0 0,0
25.05.2019 04:00:00 14,1 10,7 - - 5 3 N 1017,9 40 0 0,0
25.05.2019 03:00:00 14,7 11,0 - - 5 3 NW 1017,9 40 0 0,0
25.05.2019 02:00:00 14,6 10,8 - - 4 2 NW 1017,9 35 0 0,0
25.05.2019 01:00:00 14,9 10,6 - - 5 3 NNW 1018,1 45 - 0,0
25.05.2019 00:00:00 15,3 10,4 - - 5 3 NW 1018,1 45 0 0,0
24.05.2019 23:00:00 15,1 10,9 - - 5 3 WNW 1018,1 30 0 0,0
24.05.2019 22:00:00 15,3 11,5 - - 5 3 WNW 1017,8 28 0 0,0
24.05.2019 21:00:00 15,5 11,4 - - 5 3 W 1017,3 27 0 0,0
24.05.2019 20:00:00 16,5 11,1 - - 5 3 W 1017,1 30 0 0,0
24.05.2019 19:00:00 16,5 10,2 - - 8 4 W 1017,0 35 0 0,0
24.05.2019 18:00:00 16,4 9,3 - - 13 7 W 1017,2 30 0 0,0
24.05.2019 17:00:00 18,0 9,5 - - 11 6 W 1017,0 30 0 0,0
24.05.2019 16:00:00 19,4 10,1 - - 11 6 SW 1017,2 35 36 0,0
24.05.2019 15:00:00 19,8 10,5 - - 11 6 SW 1017,4 30 24 0,0
24.05.2019 14:00:00 19,5 10,0 - - 9 5 SW 1017,3 30 18 0,0
24.05.2019 13:00:00 19,9 10,8 - - 11 6 SSW 1017,3 35 36 0,0
24.05.2019 12:00:00 20,1 7,9 - - 5 3 N 1017,4 40 60 0,0
24.05.2019 11:00:00 19,5 8,8 - - 8 4 ENE 1017,4 30 60 0,0
24.05.2019 10:00:00 17,8 8,4 15,4 13,2 11 6 NNE 1017,3 30 60 0,0
24.05.2019 09:00:00 16,4 7,1 - - 13 7 NE 1016,7 30 60 0,0
24.05.2019 08:00:00 14,4 7,8 - - 9 5 NNE 1016,8 40 60 0,0
24.05.2019 07:00:00 11,9 9,8 - - 9 5 N 1016,5 30 0 0,0
24.05.2019 06:00:00 8,3 8,0 - - 4 2 WNW 1016,4 2,0 0 0,0
24.05.2019 05:00:00 9,3 9,1 - - 4 2 NW 1016,0 3,5 0 0,0
24.05.2019 04:00:00 10,1 10,0 - - 4 2 WNW 1015,8 0,4 0 0,0
24.05.2019 03:00:00 8,8 8,5 - - 2 1 WNW 1015,8 0,7 0 0,0
24.05.2019 02:00:00 9,8 9,6 - - 2 1 W 1015,9 2,0 0 0,0
24.05.2019 01:00:00 10,0 9,7 - - 4 2 WSW 1016,2 2,4 - 0,0
24.05.2019 00:00:00 9,7 9,3 - - 4 2 WSW 1016,2 2,5 0 0,0
23.05.2019 23:00:00 9,4 8,6 - - 5 3 SW 1016,6 4,8 0 0,0
23.05.2019 22:00:00 10,4 8,9 - - 5 3 WSW 1016,5 9 0 0,0
23.05.2019 21:00:00 12,2 8,0 - - 8 4 SW 1016,3 35 0 0,0
23.05.2019 20:00:00 15,4 8,7 - - 8 4 WSW 1015,9 40 42 0,0
23.05.2019 19:00:00 17,5 8,2 - - 9 5 WSW 1015,7 35 36 0,0
23.05.2019 18:00:00 18,7 8,6 - - 9 5 WSW 1015,8 40 48 0,0
23.05.2019 17:00:00 19,6 9,7 - - 9 5 W 1016,0 29 60 0,0
23.05.2019 16:00:00 19,7 9,8 - - 11 6 WSW 1016,2 40 60 0,0
23.05.2019 15:00:00 20,4 10,9 - - 11 6 SW 1016,4 18 60 0,0
23.05.2019 14:00:00 20,5 11,0 - - 11 6 SW 1016,5 35 60 0,0
23.05.2019 13:00:00 18,4 12,2 - - 11 6 S 1016,9 28 60 0,0
23.05.2019 12:00:00 17,1 10,7 - - 9 5 S 1017,3 28 60 0,0
23.05.2019 11:00:00 17,3 9,2 - - 11 6 SSW 1017,8 26 60 0,0
23.05.2019 10:00:00 17,1 9,2 14,9 13,2 8 4 SSW 1017,8 35 60 0,0
23.05.2019 09:00:00 15,0 9,4 - - 4 2 E 1017,9 40 54 0,0
23.05.2019 08:00:00 11,1 11,0 - - 2 1 SE 1018,2 18 30 0,0
23.05.2019 07:00:00 8,5 8,4 - - 5 3 ENE 1018,2 8 0 0,0
23.05.2019 06:00:00 6,4 6,1 - - 4 2 NE 1018,3 3,0 0 0,0
23.05.2019 05:00:00 6,2 5,9 - - 2 1 ESE 1018,3 2,5 0 0,0
23.05.2019 04:00:00 6,2 5,7 - - 4 2 NNE 1018,5 2,9 0 0,0
23.05.2019 03:00:00 7,3 7,0 - - 4 2 NNE 1018,9 2,0 0 0,0
23.05.2019 02:00:00 6,5 5,8 - - 4 2 NNE 1019,1 2,6 0 0,0
23.05.2019 01:00:00 7,4 6,6 - - 2 1 NNE 1019,2 5 - 0,0
23.05.2019 00:00:00 8,9 8,2 - - 4 2 WSW 1019,4 7 0 0,0
22.05.2019 23:00:00 8,5 7,0 - - 2 1 SW 1019,3 11 0 0,0
22.05.2019 22:00:00 10,5 6,8 - - 4 2 WSW 1019,5 12 0 0,0
22.05.2019 21:00:00 13,0 6,7 - - 5 3 WSW 1019,4 35 24 0,0
22.05.2019 20:00:00 16,2 7,2 - - 5 3 WSW 1019,3 40 60 0,0
22.05.2019 19:00:00 17,0 10,6 - - 5 3 S 1019,4 29 54 0,0
22.05.2019 18:00:00 17,3 11,0 - - 8 4 SSE 1019,5 25 60 0,0
22.05.2019 17:00:00 17,5 10,4 - - 8 4 S 1019,8 20 60 0,0
22.05.2019 16:00:00 17,9 8,6 - - 8 4 S 1020,2 35 36 0,0
22.05.2019 15:00:00 16,4 5,4 - - 11 6 S 1020,6 24 0 0,0
22.05.2019 14:00:00 15,7 7,6 - - 11 6 S 1020,8 40 0 0,0
22.05.2019 13:00:00 16,1 7,5 - - 11 6 S 1020,8 30 24 0,0
22.05.2019 12:00:00 17,4 8,5 - - 8 4 S 1020,8 28 48 0,0
22.05.2019 11:00:00 17,2 8,1 - - 8 4 SSW 1020,8 35 54 0,0
22.05.2019 10:00:00 17,3 4,2 14,7 13,0 4 2 E 1020,6 45 42 0,0
22.05.2019 09:00:00 15,4 4,5 - - 4 2 N 1020,4 45 36 0,0
22.05.2019 08:00:00 13,8 5,2 - - 8 4 NE 1020,3 30 30 0,0
22.05.2019 07:00:00 12,3 5,0 - - 8 4 NNE 1020,1 50 0 0,0
22.05.2019 06:00:00 11,6 4,7 - - 9 5 NNE 1019,9 50 0 0,0
22.05.2019 05:00:00 10,8 6,4 - - 8 4 NNE 1019,9 45 0 0,0
22.05.2019 04:00:00 10,5 6,8 - - 5 3 NNE 1019,8 40 0 0,0
22.05.2019 03:00:00 11,6 7,0 - - 8 4 N 1019,9 45 0 0,0
22.05.2019 02:00:00 11,1 6,9 - - 5 3 NNE 1019,8 45 0 0,0
22.05.2019 01:00:00 12,3 6,6 - - 9 5 N 1019,6 50 - 0,0
22.05.2019 00:00:00 12,0 9,6 - - 9 5 N 1019,6 30 0 0,0
21.05.2019 23:00:00 11,3 8,9 - - 4 2 NNE 1019,5 30 0 0,0
21.05.2019 22:00:00 11,7 8,6 - - 2 1 NW 1019,3 28 0 0,0
21.05.2019 21:00:00 13,8 8,6 - - 5 3 NW 1019,0 45 12 0,0
21.05.2019 20:00:00 16,6 8,7 - - 5 3 W 1018,6 40 30 0,0
21.05.2019 19:00:00 17,8 7,4 - - 11 6 W 1018,3 40 54 0,0
21.05.2019 18:00:00 18,1 6,9 - - 11 6 W 1018,2 40 48 0,0
21.05.2019 17:00:00 19,3 7,2 - - 15 8 W 1018,0 45 54 0,0
21.05.2019 16:00:00 20,4 4,4 - - 11 6 WNW 1018,0 50 54 0,0
21.05.2019 15:00:00 19,4 6,0 - - 9 5 N 1018,0 45 24 0,0
21.05.2019 14:00:00 19,6 5,9 - - 9 5 NNW 1018,0 24 30 0,0
21.05.2019 13:00:00 19,9 6,4 - - 8 4 W 1017,9 30 54 0,0
21.05.2019 12:00:00 19,1 7,6 - - 9 5 NW 1018,0 30 54 0,0
21.05.2019 11:00:00 18,0 10,4 - - 11 6 N 1017,9 25 60 0,0
21.05.2019 10:00:00 15,9 10,8 14,4 12,9 8 4 N 1017,9 15 60 0,0
21.05.2019 09:00:00 14,7 11,1 - - 9 5 N 1017,5 26 60 0,0
21.05.2019 08:00:00 13,2 10,9 - - 5 3 N 1017,2 15 54 0,0
21.05.2019 07:00:00 11,0 9,8 - - 5 3 N 1016,9 13 0 0,0
21.05.2019 06:00:00 9,8 8,8 - - 8 4 N 1016,3 13 0 0,0
21.05.2019 05:00:00 9,4 8,4 - - 5 3 N 1015,9 12 0 0,0
21.05.2019 04:00:00 10,8 9,5 - - 9 5 N 1015,7 14 0 0,0
21.05.2019 03:00:00 10,5 10,1 - - 8 4 N 1015,6 8 0 0,2
21.05.2019 02:00:00 10,7 10,4 - - 8 4 NNW 1015,4 7 0 0,0
21.05.2019 01:00:00 10,6 10,1 - - 4 2 NNW 1015,4 5 - 0,0
21.05.2019 00:00:00 11,3 10,8 - - 4 2 WSW 1015,2 0,8 0 0,0
20.05.2019 23:00:00 12,3 11,9 - - 5 3 NNE 1015,0 6 0 0,0
20.05.2019 22:00:00 12,5 11,6 - - 2 1 ENE 1014,7 3,1 0 0,0
20.05.2019 21:00:00 13,2 12,0 - - 4 2 ENE 1014,1 5 0 0,0
20.05.2019 20:00:00 14,5 12,1 - - 2 1 ESE 1013,6 17 6 0,6
20.05.2019 19:00:00 14,1 11,4 - - 5 3 N 1013,6 11 0 0,4
20.05.2019 18:00:00 16,8 12,7 - - 5 3 SW 1013,0 16 0 0,0
20.05.2019 17:00:00 16,9 13,4 - - 4 2 W 1013,0 12 0 0,0
20.05.2019 16:00:00 15,1 13,1 - - 5 3 SW 1013,0 6 0 0,2
20.05.2019 15:00:00 15,1 11,8 - - 5 3 W 1012,9 9 0 0,4
20.05.2019 14:00:00 18,6 9,8 - - 4 2 ENE 1012,4 19 6 0,0
20.05.2019 13:00:00 17,4 9,6 - - 9 5 N 1012,4 20 6 0,0
20.05.2019 12:00:00 16,5 8,9 - - 9 5 N 1012,4 27 0 0,0
20.05.2019 11:00:00 16,4 9,4 - - 11 6 N 1012,2 18 0 0,0
20.05.2019 10:00:00 15,7 9,9 14,5 12,7 8 4 NNE 1012,2 24 0 0,0
20.05.2019 09:00:00 14,4 9,9 - - 9 5 NNE 1011,9 13 0 0,0
20.05.2019 08:00:00 13,3 10,1 - - 9 5 NNE 1011,5 14 0 0,0
20.05.2019 07:00:00 12,2 10,8 - - 8 4 N 1011,1 10 0 0,0
20.05.2019 06:00:00 11,4 10,9 - - 4 2 N 1010,8 5 0 0,0
20.05.2019 05:00:00 11,3 10,9 - - 4 2 NNW 1010,5 3,4 0 0,0
20.05.2019 04:00:00 11,4 10,9 - - 0 0 N 1010,5 2,2 0 0,0
20.05.2019 03:00:00 11,5 10,9 - - 4 2 NNE 1010,6 1,8 0 0,2
20.05.2019 02:00:00 11,6 10,8 - - 4 2 E 1010,8 2,3 0 0,0
20.05.2019 01:00:00 11,7 10,1 - - 4 2 ENE 1010,9 4,6 - 0,0
20.05.2019 00:00:00 11,6 9,8 - - 2 1 E 1011,0 3,9 0 0,0
19.05.2019 23:00:00 12,0 9,7 - - 2 1 E 1011,0 5 0 0,0

tt = temperature
td = dewpoint
tt -20cm = temperature -20cm
tt -100cm = temperature -100cm
ff = wind speed
dd = wind direction
ppp = reduced air pressure
vv = visibility
sd = sunshine duration
rr = precipitation

Next stations